Home   Weather   Flagstaff   Past weeks
Flag for USA

Past Weather in Flagstaff, Arizona, USA — Yesterday and Last 2 Weeks

Now
43 °F

Passing clouds.


Feels Like: 39 °F
Forecast: 59 / 30 °F
Wind: 6 mph from West

Location: Flagstaff Pulliam Airport

Current Time: Oct 20, 2019 at 2:02:44 am

Latest Report: Oct 20, 2019 at 12:57 am


Visibility: 10 mi

Pressure: 29.78 "Hg (23.02 "Hg at 2103m altitude)

Humidity: 32%

Dew Point: 15 °F

Location of FlagstaffLocation

Past Weather in Flagstaff — Graph

°F

Flagstaff Temperature Yesterday

Maximum temperature yesterday: 62 °F (at 12:57 pm)
Minimum temperature yesterday: 23 °F (at 5:57 am)
Average temperature yesterday: 45 °F

High & Low Weather Summary for the Past Weeks

 TemperatureHumidityPressure
High72 °F (Oct 7, 12:57 pm)89% (Oct 15, 4:57 am)30.34 "Hg (Oct 15, 4:57 am)
Low23 °F (Oct 12, 3:57 am)6% (Oct 11, 2:57 pm)29.62 "Hg (Oct 17, 11:57 pm)
Average48 °F36%30.00 "Hg
* Reported Oct 5 12:57 am — Oct 20 12:57 am, Flagstaff. Weather by CustomWeather, © 2019

Note: Actual official high and low records may vary slightly from our data, if they occured in-between our weather recording intervals... More about our weather records

Advertising

Flagstaff Weather History for the Previous 24 Hours

Scroll right to see more
 ConditionsComfort  
Time TempWeatherWind HumidityBarometerVisibility
12:57 am
Sun, Oct 20
43 °FPassing clouds.6 mph32%29.78 "Hg10 mi
11:57 pm
Sat, Oct 19
45 °FClear.6 mph30%29.78 "Hg10 mi
10:57 pm45 °FClear.7 mph30%29.80 "Hg10 mi
9:57 pm47 °FClear.12 mph28%29.82 "Hg10 mi
8:57 pm42 °FClear.3 mph33%29.85 "Hg10 mi
7:57 pm50 °FPassing clouds.6 mph26%29.89 "Hg10 mi
6:57 pm52 °FClear.15 mph26%29.91 "Hg10 mi
5:57 pm53 °FClear.9 mph25%29.92 "Hg10 mi
4:57 pm59 °FPassing clouds.15 mph15%29.90 "Hg10 mi
3:57 pm60 °FScattered clouds.15 mph14%29.90 "Hg10 mi
2:57 pm61 °FScattered clouds.18 mph13%29.90 "Hg10 mi
1:57 pm61 °FSunny.17 mph14%29.89 "Hg10 mi
12:57 pm62 °FPassing clouds.16 mph14%29.89 "Hg10 mi
11:57 am61 °FSunny.14 mph14%29.92 "Hg10 mi
10:57 am59 °FSunny.7 mph10%29.93 "Hg10 mi
9:57 am55 °FPassing clouds.10 mph16%29.96 "Hg10 mi
8:57 am50 °FSunny.5 mph22%29.97 "Hg10 mi
7:57 am34 °FSunny.No wind42%30.01 "Hg10 mi
6:57 am23 °FSunny.No wind55%30.03 "Hg10 mi
5:57 am23 °FPassing clouds.No wind60%30.00 "Hg10 mi
4:57 am25 °FPartly cloudy.No wind55%29.95 "Hg10 mi
3:57 am26 °FPassing clouds.No wind55%29.93 "Hg10 mi
2:57 am27 °FPassing clouds.No wind58%29.93 "Hg10 mi
Weather by CustomWeather, © 2019

See weather overview